Millington, TN

4:39 PM CST on February 21, 2017 (GMT -0600)
Millington Municipal

Weather History for KNQA - June, 2013

Change the Weather History Date:

Thursday, June 20, 2013

  Actual Average Record
Temperature  
Mean Temperature 78 °F -  
Max Temperature 91 °F 86 °F 96 °F (2014)
Min Temperature 66 °F 69 °F 62 °F (2007)
Cooling Degree Days 14    
Growing Degree Days 28 (Base 50)    
Moisture  
Dew Point 69 °F    
Average Humidity 79    
Maximum Humidity 100    
Minimum Humidity 43    
Precipitation  
Precipitation 0.00 in - - ()
Sea Level Pressure  
Sea Level Pressure 30.09 in    
Wind  
Wind Speed 1 mph (East)    
Max Wind Speed 6 mph    
Max Gust Speed -    
Visibility 10 miles    
Events      
Averages and records for this station are not official NWS values.
T = Trace of Precipitation, MM = Missing Value Source: NWS Daily Summary

Daily Weather History Graph

Daily Weather History Graph

Search for Another Location

Airport or City:

Trip Planner

Search our weather history database for the weather conditions in past years. The results will help you decide how hot, cold, wet, or windy it might be!

Date:

Astronomy

Jun. 20, 2013 Rise Set
Actual Time 5:44 AM CDT 8:17 PM CDT
Civil Twilight 5:14 AM CDT 8:47 PM CDT
Nautical Twilight 4:37 AM CDT 9:24 PM CDT
Astronomical Twilight 3:56 AM CDT 10:05 PM CDT
Moon 5:23 PM CDT (6/20) 3:06 AM CDT (6/20)
Length of Visible Light 15h 32m
Length of Day
14h 32m
Waxing Gibbous, 89% of the Moon is Illuminated
Jun 20
Waxing Gibbous
Jun 23
Full
Jun 29
Last Quarter
Jul 8
New
Jul 15
First Quarter

Hourly Weather History & Observations

Time (CDT) Temp. Heat Index Dew Point Humidity Pressure Visibility Wind Dir Wind Speed Gust Speed Precip Events Conditions
12:55 AM 68.0 °F - 68.0 °F 100% 30.05 in 10.0 mi Calm Calm - N/A   Clear
1:55 AM 68.0 °F - 68.0 °F 100% 30.05 in 10.0 mi East 4.6 mph - N/A   Clear
2:55 AM 68.0 °F - 68.0 °F 100% 30.05 in 10.0 mi Calm Calm - N/A   Clear
3:15 AM 68.0 °F - 68.0 °F 100% 30.05 in 10.0 mi Calm Calm - N/A   Clear
3:35 AM 68.0 °F - 68.0 °F 100% 30.05 in 10.0 mi Calm Calm - N/A   Clear
3:55 AM 68.0 °F - 68.0 °F 100% 30.06 in 9.0 mi Calm Calm - N/A   Clear
4:15 AM 68.0 °F - 68.0 °F 100% 30.06 in 9.0 mi Calm Calm - N/A   Clear
4:35 AM 68.0 °F - 68.0 °F 100% 30.07 in 9.0 mi Calm Calm - N/A   Clear
4:55 AM 66.2 °F - 66.2 °F 100% 30.07 in 8.0 mi Calm Calm - N/A   Clear
5:15 AM 66.2 °F - 66.2 °F 100% 30.07 in 9.0 mi Calm Calm - N/A   Clear
5:35 AM 66.2 °F - 66.2 °F 100% 30.08 in 10.0 mi Calm Calm - N/A   Mostly Cloudy
5:55 AM 66.2 °F - 66.2 °F 100% 30.08 in 10.0 mi Calm Calm - N/A   Mostly Cloudy
6:55 AM 69.8 °F - 69.8 °F 100% 30.10 in 10.0 mi Calm Calm - N/A   Mostly Cloudy
7:55 AM 75.2 °F - 69.8 °F 83% 30.12 in 10.0 mi Calm Calm - N/A   Scattered Clouds
8:55 AM 80.6 °F 84.6 °F 71.6 °F 74% 30.13 in 10.0 mi Variable 3.5 mph - N/A   Scattered Clouds
9:55 AM 84.2 °F 89.6 °F 71.6 °F 66% 30.13 in 10.0 mi Calm Calm - N/A   Partly Cloudy
10:55 AM 87.8 °F 93.8 °F 71.6 °F 58% 30.13 in 10.0 mi South 5.8 mph - N/A   Partly Cloudy
11:55 AM 89.6 °F 94.7 °F 69.8 °F 52% 30.13 in 10.0 mi Calm Calm - N/A   Partly Cloudy
12:55 PM 89.6 °F 94.7 °F 69.8 °F 52% 30.12 in 10.0 mi Calm Calm - N/A   Scattered Clouds
1:55 PM 91.4 °F 96.8 °F 69.8 °F 49% 30.11 in 10.0 mi East 4.6 mph - N/A   Scattered Clouds
2:55 PM 91.4 °F 94.0 °F 66.2 °F 43% 30.10 in 10.0 mi North 3.5 mph - N/A   Scattered Clouds
3:55 PM 91.4 °F 96.8 °F 69.8 °F 49% 30.08 in 10.0 mi Variable 3.5 mph - N/A   Scattered Clouds
4:55 PM 91.4 °F 96.8 °F 69.8 °F 49% 30.07 in 10.0 mi Calm Calm - N/A   Partly Cloudy
5:55 PM 89.6 °F 94.7 °F 69.8 °F 52% 30.06 in 10.0 mi Calm Calm - N/A   Partly Cloudy
6:55 PM 87.8 °F 92.6 °F 69.8 °F 55% 30.06 in 10.0 mi Calm Calm - N/A   Partly Cloudy
7:55 PM 84.2 °F 89.6 °F 71.6 °F 66% 30.07 in 10.0 mi Calm Calm - N/A   Partly Cloudy
8:55 PM 80.6 °F 84.6 °F 71.6 °F 74% 30.08 in 10.0 mi Calm Calm - N/A   Partly Cloudy
9:55 PM 77.0 °F - 71.6 °F 83% 30.10 in 10.0 mi Calm Calm - N/A   Partly Cloudy
10:55 PM 75.2 °F - 71.6 °F 89% 30.11 in 10.0 mi Calm Calm - N/A   Clear
11:55 PM 75.2 °F - 71.6 °F 89% 30.12 in 10.0 mi Calm Calm - N/A   Clear